Weather History for Manistique, MI

Change the Weather History Date:

Sunday, June 30, 2013

  Actual Average Record
Temperature  
Mean Temperature 63 °F -  
Max Temperature 77 °F 73 °F 92 °F (1964)
Min Temperature 49 °F 52 °F 38 °F (1965)
Degree Days  
Heating Degree Days 2    
Growing Degree Days 13 (Base 50)    
Moisture  
Dew Point 44 °F    
Average Humidity 51    
Maximum Humidity 79    
Minimum Humidity 30    
Precipitation  
Precipitation 0.00 in - - ()
Sea Level Pressure  
Sea Level Pressure 29.97 in    
Wind  
Wind Speed 9 mph (North)    
Max Wind Speed 17 mph    
Max Gust Speed 26 mph    
Visibility 10 miles    
Events      
Averages and records for this station are not official NWS values.
T = Trace of Precipitation, MM = Missing Value Source: NWS Daily Summary

Daily Weather History Graph

Daily Weather History Graph

Search for Another Location

Airport:

Trip Planner

Search our weather history database for the weather conditions in past years. The results will help you decide how hot, cold, wet, or windy it might be!

Date:

Astronomy

Jun. 30, 2013 Rise Set
Actual Time 5:57 AM EDT 9:39 PM EDT
Civil Twilight 5:19 AM EDT 10:17 PM EDT
Nautical Twilight 4:27 AM EDT 11:08 PM EDT
Astronomical Twilight 3:17 AM EDT 12:18 AM EDT
Moon 1:12 AM EDT (6/30) 2:38 PM EDT (6/30)
Length of Visible Light 16h 58m
Length of Day
15h 41m
Last Quarter, 45% of the Moon is Illuminated
Jun 30
Last Quarter
Jul 8
New
Jul 15
First Quarter
Jul 22
Full
Jul 29
Last Quarter

Hourly Weather History & Observations

Time (EDT) Temp. Dew Point Humidity Pressure Visibility Wind Dir Wind Speed Gust Speed Precip Events Conditions
12:14 AM 56.7 °F 45.5 °F 66% 29.86 in 10.0 mi North 8.1 mph - N/A   Clear
12:35 AM 56.1 °F 45.5 °F 68% 29.86 in 10.0 mi North 8.1 mph - N/A   Clear
12:55 AM 55.6 °F 45.5 °F 69% 29.86 in 10.0 mi North 8.1 mph - N/A   Clear
1:14 AM 55.6 °F 45.1 °F 68% 29.86 in 10.0 mi North 8.1 mph - N/A   Clear
1:35 AM 55.6 °F 45.0 °F 67% 29.87 in 10.0 mi North 8.1 mph - N/A   Clear
1:55 AM 54.1 °F 45.0 °F 71% 29.87 in 10.0 mi NNW 6.9 mph - N/A   Clear
2:14 AM 54.3 °F 44.8 °F 70% 29.87 in 10.0 mi North 8.1 mph - N/A   Clear
2:35 AM 54.1 °F 44.6 °F 70% 29.87 in 10.0 mi North 6.9 mph - N/A   Clear
2:55 AM 53.6 °F 44.2 °F 71% 29.88 in 10.0 mi North 8.1 mph - N/A   Clear
3:15 AM 52.9 °F 44.1 °F 72% 29.88 in 10.0 mi North 6.9 mph - N/A   Clear
3:35 AM 52.2 °F 44.2 °F 74% 29.88 in 10.0 mi North 6.9 mph - N/A   Clear
3:55 AM 51.3 °F 44.2 °F 77% 29.88 in 10.0 mi North 8.1 mph - N/A   Clear
4:15 AM 51.1 °F 44.2 °F 77% 29.89 in 10.0 mi North 8.1 mph - N/A   Clear
4:35 AM 51.1 °F 44.1 °F 77% 29.89 in 10.0 mi North 8.1 mph - N/A   Clear
4:54 AM 50.2 °F 43.9 °F 79% 29.90 in 10.0 mi North 8.1 mph - N/A   Clear
5:15 AM 50.2 °F 43.7 °F 78% 29.90 in 10.0 mi North 9.2 mph - N/A   Clear
5:34 AM 50.0 °F 43.3 °F 78% 29.91 in 10.0 mi North 8.1 mph - N/A   Clear
5:55 AM 49.5 °F 43.2 °F 79% 29.92 in 10.0 mi North 8.1 mph - N/A   Clear
6:15 AM 49.8 °F 43.0 °F 77% 29.93 in 10.0 mi North 8.1 mph - N/A   Clear
6:34 AM 50.2 °F 42.8 °F 76% 29.93 in 10.0 mi North 9.2 mph - N/A   Clear
6:55 AM 50.4 °F 42.8 °F 75% 29.94 in 10.0 mi North 8.1 mph - N/A   Clear
7:15 AM 51.6 °F 43.0 °F 72% 29.95 in 10.0 mi North 9.2 mph - N/A   Clear
7:35 AM 53.1 °F 43.0 °F 69% 29.95 in 10.0 mi North 10.4 mph - N/A   Clear
7:55 AM 54.5 °F 43.7 °F 67% 29.96 in 10.0 mi North 6.9 mph - N/A   Clear
8:14 AM 55.9 °F 44.2 °F 65% 29.96 in 10.0 mi North 9.2 mph - N/A   Clear
8:35 AM 57.9 °F 45.5 °F 63% 29.97 in 10.0 mi North 8.1 mph - N/A   Clear
8:55 AM 60.3 °F 46.0 °F 59% 29.97 in 10.0 mi North 5.8 mph - N/A   Clear
9:14 AM 62.8 °F 47.8 °F 58% 29.98 in 10.0 mi North 6.9 mph - N/A   Clear
9:35 AM 64.2 °F 47.3 °F 54% 29.98 in 10.0 mi North 6.9 mph - N/A   Clear
9:55 AM 66.9 °F 48.7 °F 52% 29.99 in 10.0 mi North 6.9 mph - N/A   Clear
10:14 AM 68.0 °F 48.0 °F 49% 29.99 in 10.0 mi NNE 6.9 mph - N/A   Clear
10:35 AM 69.4 °F 48.2 °F 47% 29.99 in 10.0 mi North 5.8 mph - N/A   Clear
10:55 AM 70.9 °F 46.6 °F 42% 29.99 in 10.0 mi North 6.9 mph - N/A   Clear
11:15 AM 72.3 °F 46.2 °F 39% 29.99 in 10.0 mi North 9.2 mph - N/A   Clear
11:35 AM 73.4 °F 44.4 °F 35% 29.99 in 10.0 mi NNE 8.1 mph - N/A   Clear
11:54 AM 73.8 °F 43.9 °F 34% 30.00 in 10.0 mi NNE 8.1 mph 17.3 mph N/A   Clear
12:15 PM 74.3 °F 44.8 °F 35% 30.00 in 10.0 mi NNE 6.9 mph 18.4 mph N/A   Clear
12:35 PM 75.4 °F 45.9 °F 35% 30.00 in 10.0 mi NE 13.8 mph - N/A   Clear
12:54 PM 75.2 °F 43.9 °F 33% 30.00 in 10.0 mi NNE 10.4 mph 17.3 mph N/A   Clear
1:15 PM 75.7 °F 44.6 °F 33% 30.00 in 10.0 mi North 13.8 mph 20.7 mph N/A   Clear
1:35 PM 76.1 °F 44.6 °F 33% 30.00 in 10.0 mi North 15.0 mph 23.0 mph N/A   Clear
1:55 PM 75.9 °F 43.9 °F 32% 30.00 in 10.0 mi NNE 11.5 mph 24.2 mph N/A   Clear
2:15 PM 77.0 °F 44.6 °F 32% 30.00 in 10.0 mi NNE 12.7 mph 19.6 mph N/A   Clear
2:35 PM 77.4 °F 44.4 °F 31% 30.00 in 10.0 mi North 17.3 mph 23.0 mph N/A   Clear
2:55 PM 77.5 °F 44.4 °F 31% 30.00 in 10.0 mi North 15.0 mph 26.5 mph N/A   Clear
3:15 PM 77.4 °F 45.0 °F 32% 30.00 in 10.0 mi NNE 12.7 mph 24.2 mph N/A   Clear
3:34 PM 77.5 °F 45.1 °F 32% 29.99 in 10.0 mi North 16.1 mph 21.9 mph N/A   Clear
3:55 PM 77.4 °F 44.4 °F 31% 30.00 in 10.0 mi North 11.5 mph 23.0 mph N/A   Clear
4:15 PM 77.4 °F 44.4 °F 31% 30.00 in 10.0 mi North 16.1 mph 23.0 mph N/A   Clear
4:34 PM 77.5 °F 45.1 °F 32% 30.00 in 10.0 mi North 12.7 mph 24.2 mph N/A   Clear
4:55 PM 77.2 °F 43.7 °F 30% 30.00 in 10.0 mi NNE 12.7 mph 23.0 mph N/A   Clear
5:14 PM 77.5 °F 43.7 °F 30% 30.00 in 10.0 mi North 16.1 mph 20.7 mph N/A   Clear
5:35 PM 77.0 °F 43.7 °F 31% 30.01 in 10.0 mi North 11.5 mph 23.0 mph N/A   Clear
5:55 PM 76.6 °F 43.9 °F 31% 30.01 in 10.0 mi North 16.1 mph 23.0 mph N/A   Clear
6:15 PM 76.3 °F 43.5 °F 31% 30.01 in 10.0 mi NNE 13.8 mph - N/A   Clear
6:35 PM 75.9 °F 43.7 °F 32% 30.01 in 10.0 mi North 12.7 mph 20.7 mph N/A   Clear
6:55 PM 75.6 °F 45.0 °F 34% 30.01 in 10.0 mi North 11.5 mph - N/A   Clear
7:15 PM 74.5 °F 43.5 °F 33% 30.02 in 10.0 mi North 9.2 mph 17.3 mph N/A   Clear
7:35 PM 73.9 °F 43.9 °F 34% 30.02 in 10.0 mi NNW 9.2 mph - N/A   Clear
7:54 PM 73.0 °F 43.2 °F 34% 30.02 in 10.0 mi North 9.2 mph - N/A   Clear
8:15 PM 71.8 °F 43.3 °F 36% 30.03 in 10.0 mi North 8.1 mph 16.1 mph N/A   Clear
8:35 PM 70.3 °F 43.5 °F 38% 30.03 in 10.0 mi NNW 6.9 mph - N/A   Clear
8:54 PM 68.4 °F 43.7 °F 41% 30.03 in 10.0 mi NNW 6.9 mph - N/A   Clear
9:15 PM 66.7 °F 43.0 °F 42% 30.03 in 10.0 mi NNW 6.9 mph - N/A   Clear
9:35 PM 64.0 °F 43.7 °F 48% 30.03 in 10.0 mi NNW 6.9 mph - N/A   Clear
9:55 PM 62.6 °F 43.0 °F 49% 30.04 in 10.0 mi NNW 5.8 mph - N/A   Clear
10:15 PM 61.7 °F 42.8 °F 50% 30.05 in 10.0 mi NNW 6.9 mph - N/A   Clear
10:35 PM 61.0 °F 42.8 °F 51% 30.05 in 10.0 mi NNW 6.9 mph - N/A   Clear
10:55 PM 59.0 °F 42.8 °F 55% 30.06 in 10.0 mi North 5.8 mph - N/A   Clear
11:15 PM 58.6 °F 41.9 °F 54% 30.06 in 10.0 mi North 5.8 mph - N/A   Clear
11:34 PM 57.6 °F 41.9 °F 56% 30.06 in 10.0 mi North 5.8 mph - N/A   Clear
11:55 PM 57.4 °F 41.7 °F 56% 30.07 in 10.0 mi North 6.9 mph - N/A   Clear